[[{"header":{"parameterUnit":"m.s-1","parameterCategory":1,"la1":30.2991,"la2":30.254,"lo1":-89.0895,"lo2":-89.0444,"dy":0.0017,"dx":0.0017,"nx":28,"ny":28,"refTime":"2026-02-06T09:00:00:Z","depth":0,"parameterNumber":2,"parameterNumberName":"U-component_of_WINDS"},"data":[0,0,0,0,0,0,0,0,0,0,0,0,0,0,0,0,0,0,0,0,0,0,0,0,0,0,0,0,0,0,0,0,0,0,0,0,0,0,0,0,0,0,0,0,0,0,0,0,0,0,0,0,0,0,0,0,0,0,-4.4156,-4.4156,0,-4.4171,-4.4172,-4.4172,-4.3998,-4.3993,-4.3989,-4.3984,-4.4002,-4.4007,-4.4011,0,0,0,0,0,0,0,0,0,0,0,0,0,-4.3977,-4.3981,-4.4156,-4.4156,-4.4156,-4.4171,-4.4172,-4.4172,-4.3999,-4.3993,-4.3987,-4.3982,-4.4,-4.4006,-4.4012,0,0,0,0,0,0,0,0,0,0,0,0,0,-4.403,-4.3983,-4.4156,-4.4072,-4.4064,-4.4171,-4.4172,-4.4172,-4.4,-4.3993,-4.3986,-4.3979,-4.3998,-4.4005,-4.4013,-4.4201,0,0,-4.4035,-4.4038,0,0,0,0,0,0,0,0,-4.4027,-4.4037,-4.4084,-4.4078,-4.407,-4.4075,-4.4115,-4.4182,-4.4002,-4.4025,-4.3984,-4.3976,-4.4032,-4.4036,-4.4055,-4.4202,-4.4203,-4.4036,-4.404,-4.4043,-4.4046,0,0,0,0,0,0,0,-4.4024,-4.4035,-4.4162,-4.4085,-4.4076,-4.4033,-4.4033,-4.4127,-4.4068,-4.4022,-4.401,-4.4014,-4.4027,-4.4048,-4.4054,-4.4203,-4.4036,-4.4042,-4.4047,-4.405,-4.4504,-4.4511,0,0,0,0,0,0,-4.4031,-4.4033,-4.4161,-4.4162,-4.403,-4.4043,-4.4042,-4.4081,-4.4067,-4.4058,-4.402,-4.4006,-4.4039,-4.4046,-4.4054,-4.4272,-4.4043,-4.405,-4.4055,-4.4496,-4.4505,-4.4514,0,0,0,0,0,0,-4.4028,-4.4044,-4.4161,-4.4094,-4.4106,-4.4053,-4.4098,-4.4085,-4.4106,-4.4065,-4.4054,-4.4052,-4.4034,-4.4044,-4.4165,-4.427,-4.4054,-4.406,-4.4487,-4.4499,-4.451,-4.4712,0,0,0,0,0,0,-4.4024,-4.4044,-4.4116,-4.4097,-4.411,-4.4273,-4.4105,-4.409,-4.4119,-4.4101,-4.4093,-4.4084,-4.4029,-4.4155,-4.4173,-4.4277,-4.4066,-4.4478,-4.4492,-4.4506,-4.4695,-4.4729,-4.4757,0,0,0,0,0,-4.4018,-4.4173,-4.412,-4.4136,-4.4198,-4.4279,-4.4286,-4.4219,-4.4128,-4.4199,-4.4172,-4.4085,-4.4257,-4.4169,-4.4187,-4.4295,-4.4471,-4.4488,-4.4505,-4.4681,-4.4722,-4.4756,0,0,0,0,0,0,-4.4205,-4.4169,-4.411,-4.4263,-4.4276,-4.4249,-4.4337,-4.4264,-4.4303,-4.4284,-4.4199,-4.4199,-4.4334,-4.4327,-4.423,-4.4476,-4.4348,-4.4369,-4.4476,-4.4514,-4.4544,-4.4542,-4.4072,0,0,0,0,0,-4.4265,-4.4333,-4.4297,-4.4436,-4.4445,-4.4391,-4.4423,-4.437,-4.4379,-4.4384,-4.4366,-4.4379,-4.4435,-4.4474,-4.4524,-4.4694,-4.4689,-4.4777,-4.4808,-4.4833,-4.4853,-4.494,-4.4978,-4.457,-4.457,-4.457,0,0,-4.4387,-4.4376,-4.4424,-4.4473,-4.4476,-4.4549,-4.4396,-4.448,-4.4532,-4.4396,-4.4509,-4.4498,-4.4506,-4.4652,-4.4716,-4.465,-4.4964,-4.4855,-4.4876,-4.4881,-4.4962,-4.5,-4.5035,-4.4582,-4.458,-4.4578,0,0,-4.4648,-4.4647,-4.4761,-4.4767,-4.4773,-4.4736,-4.4764,-4.4749,-4.4735,-4.4847,-4.4746,-4.4808,-4.4908,-4.4917,-4.4935,-4.5199,-4.5119,-4.5218,-4.5378,-4.5465,-4.5497,-4.5525,-4.5617,-4.5652,-4.5237,-4.5238,-4.5238,0,-4.48,-4.4904,-4.4829,-4.4919,-4.4943,-4.4823,-4.4937,-4.4947,-4.497,-4.499,-4.4916,-4.5037,-4.5035,-4.5181,-4.5245,-4.5264,-4.5292,-4.5217,-4.5498,-4.5526,-4.5551,-4.5638,-4.5673,-4.525,-4.5248,-4.5247,-4.5246,0,-4.509,-4.5165,-4.5256,-4.528,-4.5314,-4.5417,-4.5357,-4.5401,-4.5345,-4.5315,-4.5431,-4.5423,-4.5469,-4.55,-4.5447,-4.5638,-4.5597,-4.5513,-4.5381,-4.5603,-4.5683,-4.5716,-4.5267,-4.5262,-4.5259,-4.5256,0,0,-4.5468,-4.5449,-4.5483,-4.5492,-4.549,-4.5546,-4.5643,-4.5686,-4.5725,-4.5745,-4.5823,-4.591,-4.5831,-4.5852,-4.5799,-4.5875,-4.6082,-4.578,-4.5779,-4.5835,-4.629,-4.6353,-4.6393,-4.6029,-4.6035,-4.604,-4.6289,0,-4.572,-4.5883,-4.5818,-4.5986,-4.6053,-4.594,-4.6023,-4.6031,-4.6007,-4.606,-4.6032,-4.6094,-4.5986,-4.5998,-4.6068,-4.6042,-4.6172,-4.6023,-4.61,-4.6104,-4.61,-4.6435,-4.6501,-4.6736,-4.632,-4.6325,-4.6329,0,-4.6036,-4.6067,-4.6242,-4.6226,-4.6252,-4.6329,-4.6362,-4.6415,-4.6422,-4.6398,-4.6421,-4.6351,-4.6444,-4.6315,-4.6442,-4.6342,-4.637,-4.6362,-4.6369,-4.6373,-4.6229,-4.6446,-4.681,-4.6845,-4.6378,-4.6374,-4.6371,0,-4.6292,-4.6378,-4.6493,-4.6504,-4.649,-4.6546,-4.6543,-4.6542,-4.6572,-4.6602,-4.662,-4.6662,-4.6685,-4.6718,-4.6661,-4.6572,-4.6795,-4.6662,-4.6777,-4.6779,-4.6828,-4.6826,-4.7201,-4.685,-4.685,-4.6849,-4.6848,0,-4.6578,-4.669,-4.6607,-4.6679,-4.6799,-4.6723,-4.6845,-4.6829,-4.683,-4.6895,-4.6801,-4.6864,-4.6785,-4.6842,-4.6798,-4.6908,-4.692,-4.6903,-4.6889,-4.691,-4.6912,-4.6926,-4.6908,-4.6858,-4.6856,-4.6854,-4.6853,0,-4.6884,-4.6834,-4.6952,-4.6928,-4.6925,-4.7015,-4.6994,-4.7058,-4.7027,-4.7111,-4.7126,-4.7077,-4.7138,-4.7084,-4.7144,-4.7114,-4.7261,-4.7225,-4.7258,-4.7248,-4.7366,-4.7355,-4.7761,-4.781,-4.7431,-4.7434,-4.7437,0,-4.707,-4.7152,-4.7137,-4.7173,-4.7176,-4.7237,-4.7266,-4.7195,-4.723,-4.7243,-4.7306,-4.7359,-4.7397,-4.75,-4.7469,-4.7514,-4.7477,-4.7616,-4.7483,-4.7501,-4.7477,-4.7472,-4.7479,-4.7643,-4.7648,-4.7651,-4.7654,0,-4.7403,-4.7374,-4.742,-4.7458,-4.7496,-4.7522,-4.7541,-4.7577,-4.7504,-4.7548,-4.7608,-4.7638,-4.7698,-4.7751,-4.7786,-4.7782,-4.7707,-4.7697,-4.7725,-4.7747,-4.7762,-4.7753,-4.733,-4.7687,-4.7684,-4.7682,-4.768,-4.7678,-4.7653,-4.772,-4.7719,-4.7774,-4.778,-4.78,-4.7859,-4.7834,-4.7883,-4.7925,-4.7881,-4.7955,-4.7958,-4.7996,-4.8002,-4.8058,-4.8,-4.8043,-4.8053,-4.8064,-4.808,-4.7755,-4.8065,-4.8064,-4.8063,-4.8062,-4.8061,0,-4.7979,-4.7973,-4.8024,-4.8053,-4.8096,-4.802,-4.8038,-4.8078,-4.8144,-4.8153,-4.8192,-4.8262,-4.8313,-4.8287,-4.8331,-4.8381,-4.8348,-4.8395,-4.839,-4.839,-4.8131,-4.81,-4.8421,-4.8421,-4.8421,-4.8421,-4.8421,-4.8421,-4.8154,-4.8263,-4.8235,-4.8346,-4.8339,-4.8409,-4.8425,-4.8443,-4.845,-4.8531,-4.8573,-4.8555,-4.855,-4.8593,-4.8636,-4.8627,-4.8647,-4.8707,-4.8686,-4.8444,-4.8408,-4.8374,-4.8345,-4.8713,-4.8713,-4.8939,-4.8941,-4.8943]},{"header":{"parameterUnit":"m.s-1","parameterCategory":1,"la1":30.2991,"la2":30.254,"lo1":-89.0895,"lo2":-89.0444,"dy":0.0017,"dx":0.0017,"nx":28,"ny":28,"refTime":"2026-02-06T09:00:00:Z","depth":0,"parameterNumber":3,"parameterNumberName":"V-component_of_WINDS"},"data":[0,0,0,0,0,0,0,0,0,0,0,0,0,0,0,0,0,0,0,0,0,0,0,0,0,0,0,0,0,0,0,0,0,0,0,0,0,0,0,0,0,0,0,0,0,0,0,0,0,0,0,0,0,0,0,0,0,0,-1.2651,-1.2652,0,-1.2681,-1.2682,-1.2682,-1.2697,-1.2697,-1.2697,-1.2697,-1.2726,-1.2727,-1.2728,0,0,0,0,0,0,0,0,0,0,0,0,0,-1.2604,-1.2605,-1.2651,-1.2652,-1.2652,-1.2681,-1.2682,-1.2682,-1.2697,-1.2697,-1.2697,-1.2697,-1.2726,-1.2727,-1.2728,0,0,0,0,0,0,0,0,0,0,0,0,0,-1.2628,-1.2605,-1.2651,-1.2663,-1.2664,-1.2681,-1.2682,-1.2682,-1.2697,-1.2697,-1.2697,-1.2697,-1.2725,-1.2727,-1.2728,-1.2735,0,0,-1.2731,-1.2732,0,0,0,0,0,0,0,0,-1.2627,-1.263,-1.2661,-1.2662,-1.2664,-1.2685,-1.2676,-1.27,-1.2697,-1.2684,-1.2697,-1.2697,-1.2712,-1.2715,-1.272,-1.2737,-1.2738,-1.2731,-1.2732,-1.2733,-1.2733,0,0,0,0,0,0,0,-1.2625,-1.2629,-1.2663,-1.2661,-1.2663,-1.2666,-1.2669,-1.268,-1.2698,-1.2685,-1.2687,-1.269,-1.2713,-1.2719,-1.2721,-1.2738,-1.2731,-1.2732,-1.2733,-1.2734,-1.276,-1.276,0,0,0,0,0,0,-1.2622,-1.2627,-1.2662,-1.2664,-1.2645,-1.2667,-1.267,-1.2678,-1.2698,-1.2701,-1.269,-1.2691,-1.2717,-1.272,-1.2722,-1.2731,-1.2733,-1.2734,-1.2734,-1.276,-1.276,-1.276,0,0,0,0,0,0,-1.2621,-1.2625,-1.2661,-1.2646,-1.2651,-1.2667,-1.2676,-1.2679,-1.2685,-1.2701,-1.2704,-1.2693,-1.2717,-1.272,-1.2731,-1.2732,-1.2734,-1.2735,-1.276,-1.276,-1.276,-1.2749,0,0,0,0,0,0,-1.2619,-1.2624,-1.2628,-1.2646,-1.2652,-1.2671,-1.2676,-1.268,-1.2687,-1.2688,-1.2705,-1.2708,-1.2717,-1.273,-1.2733,-1.2734,-1.2736,-1.276,-1.276,-1.276,-1.2749,-1.2748,-1.2748,0,0,0,0,0,-1.2618,-1.2624,-1.2628,-1.2633,-1.2657,-1.2671,-1.2674,-1.2685,-1.2687,-1.269,-1.2701,-1.2707,-1.2731,-1.2731,-1.2734,-1.2736,-1.276,-1.276,-1.276,-1.275,-1.2749,-1.2748,0,0,0,0,0,0,-1.2606,-1.2627,-1.2632,-1.2644,-1.2656,-1.2673,-1.2678,-1.2684,-1.2695,-1.2696,-1.2709,-1.2712,-1.2722,-1.273,-1.2728,-1.2743,-1.2746,-1.2747,-1.2737,-1.2736,-1.2736,-1.2733,-1.2737,0,0,0,0,0,-1.2605,-1.2615,-1.2633,-1.2642,-1.2647,-1.2662,-1.2668,-1.2676,-1.2688,-1.2693,-1.2704,-1.2715,-1.2725,-1.2731,-1.2741,-1.275,-1.2753,-1.2753,-1.2752,-1.2751,-1.2752,-1.2755,-1.2755,-1.276,-1.276,-1.276,0,0,-1.2603,-1.2616,-1.2621,-1.264,-1.265,-1.2659,-1.2666,-1.2676,-1.2682,-1.2694,-1.2705,-1.2713,-1.2726,-1.2736,-1.274,-1.2743,-1.2751,-1.2751,-1.2751,-1.2751,-1.2755,-1.2755,-1.2754,-1.276,-1.276,-1.276,0,0,-1.2604,-1.2615,-1.2623,-1.2632,-1.2647,-1.2656,-1.2658,-1.2674,-1.268,-1.2691,-1.2699,-1.2707,-1.2724,-1.2733,-1.2739,-1.2741,-1.2746,-1.2743,-1.274,-1.2743,-1.2743,-1.2742,-1.2742,-1.2742,-1.2744,-1.2744,-1.2744,0,-1.26,-1.2615,-1.2627,-1.2636,-1.2643,-1.2654,-1.2661,-1.2669,-1.2686,-1.269,-1.2693,-1.2713,-1.2723,-1.2734,-1.2734,-1.2739,-1.274,-1.2742,-1.2742,-1.2742,-1.2742,-1.2741,-1.2741,-1.2743,-1.2743,-1.2743,-1.2743,0,-1.2608,-1.2618,-1.2623,-1.2638,-1.2646,-1.2654,-1.2666,-1.2672,-1.2679,-1.2687,-1.2697,-1.2708,-1.272,-1.2723,-1.273,-1.2735,-1.2735,-1.274,-1.2743,-1.274,-1.274,-1.274,-1.2742,-1.2743,-1.2743,-1.2743,0,0,-1.2604,-1.2624,-1.2626,-1.2632,-1.2648,-1.2655,-1.2663,-1.2675,-1.2679,-1.269,-1.2696,-1.2709,-1.2713,-1.272,-1.2727,-1.273,-1.2729,-1.2734,-1.2734,-1.2732,-1.2733,-1.2729,-1.2729,-1.2733,-1.2733,-1.2733,-1.2732,0,-1.2606,-1.2622,-1.2631,-1.2642,-1.2651,-1.266,-1.2666,-1.2676,-1.2683,-1.2691,-1.2699,-1.2708,-1.2712,-1.2716,-1.272,-1.2728,-1.2729,-1.2729,-1.2738,-1.2738,-1.2734,-1.2729,-1.2726,-1.2724,-1.2732,-1.2732,-1.2732,0,-1.2612,-1.2622,-1.2633,-1.2646,-1.265,-1.2656,-1.2666,-1.2673,-1.2684,-1.2689,-1.2696,-1.2703,-1.271,-1.2713,-1.2722,-1.2722,-1.2726,-1.273,-1.273,-1.2732,-1.2735,-1.273,-1.2724,-1.2724,-1.2732,-1.2732,-1.2732,0,-1.2606,-1.2622,-1.2631,-1.2636,-1.2652,-1.2655,-1.2662,-1.2672,-1.2678,-1.2686,-1.269,-1.2699,-1.2704,-1.2711,-1.272,-1.2721,-1.2728,-1.2732,-1.2731,-1.2731,-1.2732,-1.2732,-1.2727,-1.2736,-1.2736,-1.2736,-1.2736,0,-1.2608,-1.2614,-1.2628,-1.2634,-1.264,-1.2651,-1.2657,-1.2664,-1.2673,-1.2679,-1.2687,-1.2692,-1.2704,-1.271,-1.2717,-1.2723,-1.2725,-1.2729,-1.2731,-1.2728,-1.2727,-1.2731,-1.2731,-1.2736,-1.2736,-1.2736,-1.2736,0,-1.2603,-1.2613,-1.2623,-1.2636,-1.2639,-1.2644,-1.2654,-1.2659,-1.2666,-1.2674,-1.2676,-1.2687,-1.2695,-1.2704,-1.2715,-1.2719,-1.2724,-1.2727,-1.2721,-1.2722,-1.272,-1.272,-1.2717,-1.2717,-1.2726,-1.2726,-1.2726,0,-1.2604,-1.2609,-1.2622,-1.2626,-1.2632,-1.264,-1.2645,-1.2655,-1.266,-1.2671,-1.2674,-1.2682,-1.2689,-1.2701,-1.2709,-1.2717,-1.272,-1.2718,-1.2721,-1.2718,-1.2719,-1.2718,-1.2718,-1.2717,-1.2717,-1.2717,-1.2717,0,-1.2603,-1.2607,-1.2615,-1.2623,-1.2629,-1.2637,-1.2645,-1.2647,-1.2659,-1.2664,-1.2671,-1.2677,-1.2687,-1.2695,-1.2703,-1.2709,-1.2714,-1.2716,-1.2716,-1.2713,-1.2709,-1.271,-1.2718,-1.2716,-1.2716,-1.2716,-1.2716,-1.2716,-1.26,-1.2604,-1.2614,-1.2621,-1.2628,-1.2634,-1.2639,-1.2646,-1.2653,-1.2662,-1.2667,-1.2674,-1.2682,-1.2694,-1.27,-1.2705,-1.2707,-1.2707,-1.2708,-1.2707,-1.2706,-1.2708,-1.2706,-1.2706,-1.2707,-1.2707,-1.2707,0,-1.2599,-1.2605,-1.2612,-1.2622,-1.2627,-1.2632,-1.264,-1.2644,-1.265,-1.2658,-1.2664,-1.2672,-1.2679,-1.2687,-1.2694,-1.2697,-1.2699,-1.2698,-1.2698,-1.2699,-1.2704,-1.2703,-1.2696,-1.2696,-1.2696,-1.2696,-1.2696,-1.2696,-1.2599,-1.2605,-1.261,-1.2619,-1.2625,-1.2632,-1.2636,-1.2642,-1.2648,-1.2656,-1.2661,-1.2667,-1.2674,-1.2682,-1.2688,-1.269,-1.2692,-1.269,-1.2693,-1.2698,-1.2699,-1.27,-1.2698,-1.269,-1.269,-1.2687,-1.2687,-1.2687]}]]